DELTA 2 DEB (DPAF), 27000

Orbit data source: Space-Track

DELTA 2 DEB (DPAF), 27000 is space debris in LEO originally from a launch on Fri, 07 Dec 2001 UTC launched from the Air Force Western Test Range (AFWTR). Debris objects in space refer to the collection of defunct objects orbiting the Earth. Examples of debris include non-operational satellites, rocket bodies, and fragments generated from explosions, collisions, or faulty payload assembly.

Loading next visibility...
Identifier
27000, 2001-055D
Orbit
LEO
Last TLE update
1 day ago
Origin
Manufacturer
ASTD/UK
Mission
Spacecraft
Bus & Motor
DELTA DPAF, Unknown motor
Mass
186 kg wet, 186 kg dry
Launch date (UTC)
2001-12-07 (23 years ago)
Launch vehicle
Unknown
Launch site
Air Force Western Test Range (AFWTR)
Object type
Payload
Rocket body
Debris
Shape & HBR
Cyl, 3.7 m
Radar Cross Section
10.210 m², Large (>1 m²)

Expand to show TLE details & history

TLE from 1 day ago
0 DELTA 2 DEB (DPAF)
1 27000U 01055D   25126.38417637  .00000023  00000-0  34752-3 0  9994
2 27000  66.0378 142.3750 0011782 246.4681 209.4538 12.84957094 98189
Epoch: 2025-05-06T09:13Z
Definitive object data (Epoch: 2025-05-06T09:13:12.838Z)
Latitude
65.48046°
Longitude
-116.22484°
Altitude
1,339.941 km
Speed
7.19 km/s
True Right ascension
16h 26m 15s
True Declination
65° 21' 37"
Sunlit
Object was in daylight at TLE epoch
Visualization TLE readout
Latitude
61.27646°
Longitude
-97.31025°
Altitude
1,338.063 km
Speed
7.191 km/s
Apparent Right ascension
17h 11m 59s
Apparent Declination
17° 20' 31"
Sunlit
Object is in daylight
Visualization observer readout
Local Sidereal Time
04:49:18
Azimuth
353.582° N
Elevation
-32.499°
Doppler factor
1
Orbital elements
Apogee altitude
1,329.234 km
Perigee altitude
1,311.094 km
Semi-major axis
7,698.301 km
Eccentricity
0.0011782
Inclination
66.0378°
RAAN
142.375°
Arg. of periapsis
246.4681°
True anomaly
209.3875°
Mean anomaly
209.4538°
Eccentric anomaly
209.42064°
Mean motion
3.2133 °/min
BSTAR
0.00034752
Orbital period
112.03 mins
Loading maneuver chart data...
Loading SW <> Apogee altitude chart data...
Loading historical data...
Loading historical data...
Loading historical data...
Loading historical data...
Loading historical data...
Loading historical data...
Loading historical data...

DELTA 2 DEB (DPAF) Visibility forecast

Observer location: undefined°, undefined°

Span
Click to sort rows by Start time (UTC) header in descending order
Start Az.
Max El. time (UTC)
Max El. Az.
Max El.
End time (UTC)
End Az.
14 mins2025-05-08 01:55:00.540Z187.304° SSW2025-05-08 02:02:00.540Z111.663° ESE40.169°2025-05-08 02:09:00.540Z39.034° NE
13 mins2025-05-08 03:52:00.540Z255.137° W2025-05-08 03:58:00.540Z315.657° NNW30.329°2025-05-08 04:05:00.540Z17.486° NNE
4 mins2025-05-08 05:55:00.540Z330.467° NNW2025-05-08 05:56:00.540Z338.036° N11.756°2025-05-08 05:59:00.540Z0.358° NNE
12 mins2025-05-08 09:50:00.540Z350.705° N2025-05-08 09:56:00.540Z46.386° ENE25.026°2025-05-08 10:02:00.540Z96.795° ESE
15 mins2025-05-08 11:45:00.540Z326.569° NNW2025-05-08 11:52:00.540Z241.856° WSW44.329°2025-05-08 12:00:00.540Z158.867° S
5 mins2025-05-08 13:44:00.540Z278.006° WNW2025-05-08 13:46:00.540Z262.356° W13.349°2025-05-08 13:49:00.540Z239.1° WSW
|